Ypsilanti, MI

8:32 AM EST on December 14, 2017 (GMT -0500)
Willow Run

Weather History for KYIP - July, 2013

Change the Weather History Date:

Thursday, July 11, 2013

  Actual Average Record
Temperature  
Mean Temperature 73 °F -  
Max Temperature 82 °F 83 °F 93 °F (1972)
Min Temperature 64 °F 62 °F 48 °F (1996)
Cooling Degree Days 8    
Growing Degree Days 23 (Base 50)    
Moisture  
Dew Point 55 °F    
Average Humidity 55    
Maximum Humidity 78    
Minimum Humidity 35    
Precipitation  
Precipitation 0.00 in - - ()
Sea Level Pressure  
Sea Level Pressure 30.03 in    
Wind  
Wind Speed 6 mph (North)    
Max Wind Speed 14 mph    
Max Gust Speed -    
Visibility 9 miles    
Events Fog    
Averages and records for this station are not official NWS values.
T = Trace of Precipitation, MM = Missing Value Source: NWS Daily Summary

Daily Weather History Graph

Daily Weather History Graph

Search for Another Location

Airport or City:

Trip Planner

Search our weather history database for the weather conditions in past years. The results will help you decide how hot, cold, wet, or windy it might be!

Date:

Astronomy

Jul. 11, 2013 Rise Set
Actual Time 6:08 AM EDT 9:10 PM EDT
Civil Twilight 5:34 AM EDT 9:44 PM EDT
Nautical Twilight 4:51 AM EDT 10:27 PM EDT
Astronomical Twilight 3:59 AM EDT 11:18 PM EDT
Moon 9:30 AM EDT (7/11) 10:45 PM EDT (7/11)
Length of Visible Light 16h 10m
Length of Day
15h 02m
Waxing Crescent, 10% of the Moon is Illuminated
Jul 11
Waxing Crescent
Jul 15
First Quarter
Jul 22
Full
Jul 29
Last Quarter
Aug 6
New

Hourly Weather History & Observations

Time (EDT) Temp. Heat Index Dew Point Humidity Pressure Visibility Wind Dir Wind Speed Gust Speed Precip Events Conditions
12:53 AM 68.0 °F - 57.0 °F 68% 29.95 in 10.0 mi NNW 5.8 mph - N/A   Mostly Cloudy
1:53 AM 66.9 °F - 57.9 °F 73% 29.95 in 10.0 mi NNW 4.6 mph - N/A   Mostly Cloudy
2:53 AM 66.9 °F - 57.9 °F 73% 29.96 in 10.0 mi NW 3.5 mph - N/A   Overcast
3:53 AM 66.0 °F - 57.0 °F 73% 29.97 in 10.0 mi NNW 4.6 mph - N/A   Overcast
4:53 AM 64.9 °F - 55.9 °F 73% 29.98 in 10.0 mi NNW 5.8 mph - N/A   Overcast
5:53 AM 64.0 °F - 55.9 °F 75% 30.00 in 10.0 mi NNW 3.5 mph - N/A   Overcast
6:53 AM 64.0 °F - 55.9 °F 75% 30.02 in 10.0 mi Calm Calm - N/A   Clear
7:53 AM 68.0 °F - 57.0 °F 68% 30.03 in 10.0 mi North 4.6 mph - N/A   Clear
8:53 AM 72.0 °F - 55.0 °F 55% 30.04 in 10.0 mi North 5.8 mph - N/A   Clear
9:53 AM 75.0 °F - 52.0 °F 44% 30.05 in 10.0 mi North 9.2 mph - N/A   Clear
10:53 AM 77.0 °F - 53.1 °F 43% 30.05 in 10.0 mi North 10.4 mph - N/A   Clear
11:25 AM 82.4 °F - - N/A% 30.07 in 1.8 mi North 9.2 mph - N/A   Clear
11:28 AM 82.4 °F - - N/A% 30.07 in 0.2 mi NNE 8.1 mph - N/A Fog Fog
11:38 AM 75.2 °F - 53.6 °F 47% 30.07 in 2.0 mi North - - N/A   Haze
11:45 AM 78.8 °F - 51.8 °F 39% 30.07 in - NNE 8.1 mph - N/A   Partly Cloudy
11:53 AM 75.9 °F - 52.0 °F 43% 30.05 in - NNW 10.4 mph - N/A   Partly Cloudy
12:53 PM 78.1 °F - 52.0 °F 40% 30.05 in 10.0 mi Variable 6.9 mph - N/A   Mostly Cloudy
1:53 PM 78.1 °F - 52.0 °F 40% 30.04 in 10.0 mi NW 6.9 mph - N/A   Mostly Cloudy
2:53 PM 80.1 °F - 52.0 °F 38% 30.04 in 10.0 mi NNW 8.1 mph - N/A   Mostly Cloudy
3:53 PM 81.0 °F 80.4 °F 53.1 °F 38% 30.03 in 10.0 mi North 13.8 mph - N/A   Clear
4:53 PM 82.0 °F - 52.0 °F 35% 30.03 in 10.0 mi North 8.1 mph - N/A   Scattered Clouds
5:53 PM 81.0 °F - 51.1 °F 35% 30.02 in 10.0 mi North 6.9 mph - N/A   Partly Cloudy
6:53 PM 80.1 °F 79.9 °F 53.1 °F 39% 30.03 in 10.0 mi North 9.2 mph - N/A   Partly Cloudy
7:53 PM 78.1 °F - 54.0 °F 43% 30.03 in 10.0 mi North 6.9 mph - N/A   Clear
8:53 PM 73.0 °F - 54.0 °F 51% 30.03 in 10.0 mi NNW 4.6 mph - N/A   Clear
9:53 PM 68.0 °F - 59.0 °F 73% 30.04 in 10.0 mi ESE 4.6 mph - N/A   Clear
10:53 PM 68.0 °F - 57.9 °F 70% 30.06 in 10.0 mi Calm Calm - N/A   Clear
11:53 PM 66.0 °F - 59.0 °F 78% 30.07 in 10.0 mi Calm Calm - N/A   Clear